Location: Rancho Del Sol Observatory
(38.7214°N, 120.6350°W)
Time: 10:53:52
(UTC-08:00)

A-11 Canister half - Pass Details

Date: 28 January 2020
Orbit: 1517 x 1683 km, 47.2° (Epoch: 17 February)

Event Time Altitude Azimuth Distance (km) Brightness Sun altitude
Rises 20:58:54 0° 208° (SSW) 4,807 11.8 -42.8°
Reaches altitude 10° 21:02:15 10° 202° (SSW) 3,800 11.1 -43.4°
Enters shadow 21:03:34 15° 198° (SSW) 3,420 10.8 -43.7°
